Precipitable_Water
0.97 1.01 1.05 1.09 1.12 1.17 1.18 1.15 1.17 1.20 1.24 1.31 1.36 1.38 1.42 1.43 1.39 1.34 1.29 1.28 1.24 1.18 1.19 1.21 1.19 1.15 1.08 1.06 1.07 1.08 1.07 1.03 1.02 0.99 0.99 0.97 0.98 1.01 1.00 1.03 1.01 1.04 1.09 1.08 1.08 1.09 1.13 1.21 1.22 1.23 1.28 1.32 1.35 1.36 1.34 1.33 1.33 1.38 1.44 1.48 1.51 1.58 1.58
0.91 0.96 1.01 1.03 1.07 1.14 1.18 1.16 1.18 1.21 1.24 1.29 1.32 1.34 1.36 1.37 1.36 1.31 1.28 1.26 1.25 1.19 1.16 1.17 1.18 1.15 1.08 1.04 1.05 1.06 1.04 1.03 1.02 1.00 0.99 0.99 1.01 1.03 1.05 1.03 1.01 1.00 1.06 1.09 1.13 1.16 1.19 1.20 1.19 1.19 1.21 1.28 1.31 1.37 1.39 1.37 1.34 1.34 1.36 1.42 1.45 1.49 1.54
0.89 0.93 0.96 0.97 1.02 1.08 1.15 1.16 1.18 1.19 1.21 1.26 1.29 1.30 1.27 1.28 1.27 1.25 1.27 1.29 1.27 1.26 1.24 1.19 1.17 1.14 1.08 1.05 1.02 1.01 1.01 1.01 1.01 1.00 0.96 0.94 0.94 0.97 1.04 1.04 1.03 1.00 1.03 1.11 1.14 1.18 1.22 1.21 1.20 1.19 1.20 1.22 1.27 1.32 1.36 1.36 1.34 1.34 1.34 1.37 1.40 1.42 1.45
0.82 0.90 0.94 0.97 1.03 1.09 1.11 1.12 1.13 1.15 1.19 1.22 1.23 1.22 1.21 1.23 1.30 1.34 1.36 1.34 1.30 1.27 1.22 1.21 1.20 1.17 1.14 1.05 0.99 0.97 0.98 0.99 0.99 0.98 0.97 0.96 0.93 0.95 0.99 1.03 1.04 1.05 1.05 1.06 1.13 1.17 1.21 1.23 1.22 1.20 1.21 1.20 1.21 1.26 1.31 1.32 1.33 1.33 1.32 1.32 1.32 1.37 1.42
0.83 0.91 0.95 0.99 1.06 1.12 1.10 1.11 1.11 1.12 1.15 1.21 1.24 1.24 1.23 1.28 1.34 1.38 1.40 1.42 1.38 1.28 1.23 1.23 1.23 1.22 1.20 1.15 1.05 0.99 0.96 0.95 0.97 0.98 0.98 0.98 0.98 0.98 0.95 0.95 1.01 1.02 1.02 1.06 1.14 1.18 1.19 1.21 1.21 1.21 1.19 1.20 1.20 1.23 1.24 1.29 1.30 1.32 1.31 1.30 1.26 1.31 1.34
0.83 0.88 0.92 0.93 1.00 1.06 1.07 1.09 1.11 1.13 1.14 1.18 1.23 1.27 1.29 1.31 1.32 1.32 1.36 1.39 1.37 1.36 1.35 1.35 1.32 1.28 1.22 1.21 1.15 1.06 1.01 0.98 0.97 0.96 0.97 0.98 0.98 0.97 0.94 0.93 0.95 1.00 1.03 1.04 1.11 1.16 1.20 1.20 1.18 1.19 1.17 1.19 1.21 1.22 1.23 1.23 1.24 1.26 1.26 1.29 1.27 1.29 1.32
0.79 0.82 0.84 0.85 0.91 0.99 1.03 1.08 1.12 1.13 1.15 1.19 1.24 1.27 1.28 1.27 1.27 1.30 1.36 1.35 1.35 1.30 1.32 1.33 1.34 1.32 1.24 1.23 1.18 1.12 1.04 0.99 0.99 0.98 0.99 0.99 0.99 0.96 0.95 0.95 0.96 0.99 1.03 1.10 1.10 1.15 1.18 1.18 1.18 1.19 1.19 1.19 1.20 1.20 1.21 1.20 1.20 1.23 1.22 1.22 1.22 1.27 1.29
0.75 0.78 0.77 0.79 0.90 0.97 1.04 1.10 1.14 1.15 1.15 1.17 1.19 1.23 1.24 1.24 1.28 1.32 1.32 1.30 1.27 1.28 1.29 1.30 1.33 1.32 1.27 1.25 1.20 1.13 1.08 1.06 1.05 1.02 1.02 1.00 0.99 0.96 0.96 0.97 0.97 0.99 1.05 1.06 1.10 1.12 1.12 1.16 1.20 1.21 1.21 1.20 1.19 1.20 1.21 1.21 1.21 1.24 1.23 1.17 1.15 1.17 1.23
0.72 0.79 0.76 0.76 0.82 0.91 1.02 1.11 1.13 1.14 1.13 1.10 1.13 1.23 1.30 1.31 1.31 1.29 1.30 1.28 1.26 1.23 1.25 1.30 1.31 1.33 1.30 1.24 1.19 1.15 1.11 1.08 1.06 1.05 1.03 1.01 1.00 0.97 0.98 1.00 1.00 1.02 1.01 1.02 1.07 1.14 1.14 1.14 1.20 1.23 1.24 1.22 1.22 1.21 1.21 1.20 1.20 1.23 1.21 1.18 1.15 1.12 1.13
0.70 0.76 0.80 0.78 0.81 0.88 1.00 1.10 1.13 1.13 1.13 1.15 1.16 1.22 1.32 1.35 1.34 1.35 1.35 1.32 1.29 1.26 1.30 1.34 1.34 1.32 1.28 1.22 1.18 1.16 1.13 1.09 1.06 1.04 1.03 1.00 1.00 0.98 0.99 1.02 1.02 1.04 1.04 1.05 1.09 1.14 1.20 1.21 1.21 1.24 1.25 1.22 1.22 1.21 1.19 1.19 1.18 1.18 1.19 1.16 1.15 1.12 1.10
0.65 0.72 0.80 0.80 0.82 0.87 0.97 1.01 1.03 1.07 1.11 1.13 1.18 1.26 1.31 1.32 1.35 1.35 1.34 1.34 1.33 1.34 1.43 1.48 1.49 1.41 1.31 1.22 1.14 1.12 1.10 1.07 1.06 1.02 1.00 0.99 1.00 0.99 1.02 1.05 1.06 1.09 1.07 1.09 1.12 1.15 1.20 1.24 1.26 1.24 1.25 1.22 1.18 1.17 1.16 1.17 1.17 1.16 1.16 1.16 1.16 1.14 1.12
0.58 0.64 0.73 0.78 0.81 0.85 0.88 0.90 0.95 1.02 1.09 1.14 1.17 1.23 1.28 1.31 1.33 1.36 1.33 1.30 1.39 1.42 1.47 1.55 1.60 1.54 1.42 1.32 1.21 1.15 1.09 1.07 1.08 1.06 1.03 1.02 1.02 1.02 1.04 1.07 1.09 1.10 1.12 1.14 1.13 1.16 1.20 1.22 1.25 1.22 1.19 1.21 1.20 1.18 1.17 1.18 1.18 1.15 1.13 1.13 1.15 1.15 1.15
0.57 0.60 0.66 0.77 0.82 0.87 0.90 0.91 0.94 1.01 1.05 1.09 1.13 1.18 1.24 1.29 1.33 1.33 1.30 1.34 1.42 1.50 1.55 1.61 1.64 1.62 1.53 1.43 1.33 1.24 1.17 1.12 1.08 1.06 1.05 1.04 1.04 1.05 1.07 1.08 1.10 1.13 1.14 1.17 1.16 1.16 1.18 1.21 1.22 1.23 1.20 1.18 1.20 1.20 1.19 1.17 1.18 1.18 1.18 1.18 1.18 1.17 1.14
0.60 0.61 0.69 0.76 0.82 0.85 0.87 0.90 0.97 1.02 1.08 1.12 1.16 1.21 1.24 1.25 1.26 1.25 1.27 1.32 1.42 1.53 1.59 1.63 1.64 1.64 1.60 1.53 1.43 1.33 1.25 1.21 1.17 1.13 1.09 1.08 1.07 1.06 1.06 1.08 1.10 1.13 1.17 1.19 1.18 1.17 1.17 1.19 1.18 1.20 1.21 1.19 1.18 1.19 1.23 1.23 1.22 1.23 1.24 1.22 1.20 1.19 1.16
0.65 0.69 0.74 0.76 0.81 0.86 0.90 0.96 1.01 1.07 1.11 1.13 1.16 1.17 1.17 1.20 1.26 1.31 1.33 1.37 1.41 1.50 1.55 1.64 1.66 1.64 1.61 1.57 1.50 1.43 1.36 1.29 1.25 1.22 1.18 1.14 1.10 1.07 1.07 1.09 1.11 1.13 1.16 1.18 1.17 1.16 1.16 1.19 1.21 1.19 1.19 1.22 1.21 1.20 1.24 1.26 1.27 1.27 1.25 1.22 1.20 1.20 1.16
0.72 0.74 0.76 0.79 0.84 0.89 0.96 1.01 1.04 1.04 1.07 1.10 1.14 1.17 1.18 1.24 1.29 1.30 1.30 1.33 1.39 1.43 1.52 1.59 1.60 1.61 1.61 1.57 1.55 1.53 1.49 1.40 1.31 1.27 1.26 1.22 1.15 1.10 1.08 1.10 1.12 1.13 1.14 1.15 1.14 1.14 1.16 1.17 1.21 1.23 1.21 1.22 1.25 1.28 1.29 1.30 1.34 1.33 1.29 1.25 1.20 1.17 1.16
0.80 0.77 0.79 0.84 0.89 0.93 0.97 0.99 1.01 1.03 1.03 1.08 1.15 1.22 1.28 1.29 1.33 1.39 1.40 1.42 1.45 1.46 1.52 1.57 1.56 1.58 1.59 1.57 1.59 1.58 1.56 1.49 1.41 1.35 1.29 1.26 1.22 1.17 1.12 1.10 1.13 1.13 1.13 1.14 1.17 1.17 1.17 1.18 1.16 1.21 1.26 1.25 1.25 1.28 1.32 1.33 1.35 1.36 1.36 1.33 1.30 1.25 1.20
0.79 0.85 0.85 0.89 0.92 0.95 0.98 0.99 1.00 1.03 1.08 1.17 1.23 1.30 1.35 1.36 1.40 1.43 1.42 1.47 1.49 1.52 1.57 1.56 1.56 1.55 1.55 1.58 1.61 1.60 1.57 1.54 1.51 1.44 1.36 1.32 1.28 1.23 1.17 1.14 1.12 1.12 1.12 1.12 1.15 1.19 1.21 1.18 1.17 1.19 1.27 1.31 1.32 1.33 1.35 1.37 1.39 1.41 1.43 1.43 1.42 1.39 1.33
0.79 0.86 0.87 0.88 0.92 0.95 1.01 1.03 1.10 1.09 1.11 1.24 1.37 1.41 1.42 1.41 1.41 1.42 1.46 1.49 1.53 1.59 1.57 1.54 1.55 1.57 1.56 1.56 1.58 1.59 1.59 1.58 1.53 1.49 1.46 1.40 1.34 1.32 1.28 1.20 1.15 1.13 1.12 1.11 1.15 1.21 1.21 1.20 1.23 1.24 1.29 1.33 1.34 1.34 1.39 1.41 1.47 1.51 1.54 1.56 1.57 1.56 1.55
0.67 0.70 0.74 0.77 0.78 0.82 0.91 0.97 0.99 1.08 1.23 1.37 1.48 1.54 1.55 1.51 1.46 1.48 1.52 1.55 1.58 1.57 1.57 1.55 1.55 1.55 1.56 1.59 1.59 1.59 1.59 1.58 1.55 1.51 1.49 1.50 1.47 1.42 1.38 1.30 1.20 1.15 1.16 1.17 1.19 1.21 1.23 1.27 1.28 1.31 1.32 1.32 1.35 1.38 1.41 1.44 1.51 1.54 1.57 1.60 1.63 1.66 1.67
0.66 0.70 0.71 0.76 0.78 0.81 0.73 0.71 0.86 0.89 0.92 0.98 1.17 1.35 1.45 1.48 1.47 1.47 1.47 1.49 1.52 1.54 1.54 1.55 1.53 1.51 1.53 1.55 1.58 1.62 1.62 1.59 1.56 1.54 1.53 1.53 1.54 1.53 1.48 1.42 1.32 1.26 1.25 1.23 1.21 1.20 1.21 1.25 1.28 1.30 1.31 1.33 1.35 1.38 1.42 1.45 1.50 1.53 1.56 1.60 1.64 1.68 1.71
0.87 0.85 0.97 1.03 1.05 1.05 1.01 0.91 1.08 1.04 0.98 1.01 0.97 1.03 1.00 1.11 1.24 1.30 1.34 1.41 1.42 1.47 1.48 1.49 1.48 1.48 1.49 1.49 1.52 1.54 1.59 1.61 1.60 1.57 1.56 1.55 1.55 1.54 1.54 1.53 1.46 1.34 1.32 1.30 1.29 1.29 1.28 1.28 1.28 1.27 1.29 1.33 1.37 1.37 1.36 1.46 1.53 1.55 1.58 1.61 1.64 1.69 1.72
1.06 1.04 1.07 1.11 1.14 1.17 1.23 1.29 1.29 1.21 1.09 1.04 0.99 0.96 1.07 1.17 1.11 1.04 1.11 1.22 1.28 1.32 1.39 1.42 1.40 1.40 1.44 1.46 1.48 1.51 1.57 1.60 1.60 1.62 1.61 1.58 1.57 1.54 1.53 1.54 1.54 1.48 1.42 1.33 1.30 1.28 1.27 1.24 1.24 1.27 1.29 1.33 1.36 1.36 1.36 1.44 1.54 1.59 1.61 1.63 1.66 1.70 1.72
1.16 1.20 1.16 1.13 1.10 1.16 1.24 1.24 1.13 1.13 1.14 1.05 0.96 1.04 1.05 1.15 1.18 1.14 1.06 0.97 0.99 1.11 1.21 1.26 1.29 1.36 1.41 1.45 1.47 1.51 1.56 1.59 1.60 1.59 1.62 1.63 1.56 1.55 1.59 1.61 1.62 1.57 1.53 1.37 1.29 1.27 1.28 1.30 1.31 1.32 1.34 1.35 1.37 1.40 1.40 1.43 1.52 1.57 1.62 1.67 1.73 1.76 1.75
1.13 1.15 1.15 1.15 1.09 1.06 1.12 1.15 1.08 1.06 1.11 1.08 0.96 0.98 1.10 1.11 1.08 1.08 1.07 1.08 1.07 0.98 0.92 1.04 1.13 1.24 1.32 1.42 1.49 1.52 1.55 1.58 1.59 1.59 1.61 1.61 1.62 1.64 1.63 1.64 1.64 1.66 1.67 1.57 1.47 1.39 1.39 1.42 1.38 1.39 1.42 1.45 1.47 1.51 1.50 1.51 1.57 1.61 1.63 1.69 1.75 1.81 1.85
1.05 1.09 1.17 1.19 1.14 1.07 1.10 1.15 1.08 1.02 1.08 1.08 1.15 1.09 1.12 1.18 1.14 1.08 1.06 1.07 1.08 1.06 1.00 0.94 0.96 1.12 1.24 1.35 1.45 1.49 1.52 1.55 1.57 1.59 1.59 1.62 1.67 1.70 1.70 1.73 1.73 1.72 1.71 1.69 1.65 1.57 1.53 1.51 1.50 1.47 1.49 1.54 1.56 1.57 1.59 1.59 1.64 1.69 1.71 1.73 1.77 1.83 1.88
1.05 1.04 1.10 1.16 1.18 1.16 1.04 1.07 1.11 1.16 1.11 1.11 1.12 1.15 1.06 1.07 1.12 1.08 1.08 1.08 1.04 1.00 1.01 1.05 1.09 1.10 1.12 1.20 1.32 1.41 1.46 1.52 1.54 1.56 1.62 1.67 1.69 1.74 1.75 1.75 1.72 1.73 1.72 1.70 1.70 1.67 1.62 1.59 1.58 1.56 1.57 1.62 1.65 1.64 1.67 1.70 1.72 1.78 1.80 1.82 1.84 1.87 1.87
1.07 1.07 1.15 1.21 1.22 1.18 1.10 1.07 1.11 1.08 1.02 1.01 1.04 1.06 1.06 1.03 1.00 1.09 1.10 1.04 1.00 1.07 1.10 1.10 1.07 1.09 1.12 1.13 1.19 1.28 1.38 1.45 1.52 1.57 1.61 1.69 1.73 1.71 1.72 1.77 1.78 1.75 1.73 1.72 1.70 1.65 1.62 1.62 1.61 1.59 1.59 1.64 1.68 1.70 1.73 1.78 1.79 1.81 1.84 1.86 1.88 1.88 1.88
1.08 1.08 1.10 1.10 1.09 1.15 1.13 1.08 1.05 1.00 0.93 0.98 1.01 1.02 1.03 1.06 1.00 0.98 1.07 1.05 1.07 1.12 1.11 1.13 1.09 1.06 1.07 1.11 1.16 1.22 1.29 1.37 1.44 1.51 1.59 1.64 1.71 1.72 1.72 1.77 1.76 1.75 1.75 1.71 1.68 1.64 1.61 1.61 1.60 1.57 1.56 1.60 1.65 1.71 1.74 1.78 1.81 1.83 1.83 1.84 1.84 1.81 1.79
1.06 1.06 1.10 1.13 1.11 1.08 1.09 1.08 1.08 1.02 0.99 1.01 1.05 1.03 1.03 1.02 0.99 1.04 1.00 1.00 1.15 1.17 1.14 1.11 1.14 1.09 1.07 1.07 1.11 1.17 1.23 1.30 1.39 1.46 1.53 1.58 1.66 1.71 1.72 1.74 1.76 1.76 1.75 1.73 1.68 1.63 1.59 1.59 1.60 1.58 1.54 1.53 1.57 1.65 1.71 1.78 1.82 1.86 1.86 1.83 1.82 1.80 1.79
1.04 1.02 1.04 1.06 1.08 1.10 1.09 1.06 1.07 1.02 1.00 1.04 1.08 1.09 1.08 1.11 1.06 1.07 1.02 1.07 1.16 1.14 1.13 1.12 1.15 1.13 1.08 1.08 1.12 1.16 1.22 1.29 1.35 1.42 1.50 1.57 1.63 1.63 1.67 1.71 1.75 1.70 1.74 1.73 1.69 1.64 1.59 1.59 1.60 1.55 1.53 1.52 1.50 1.56 1.64 1.73 1.81 1.86 1.90 1.87 1.83 1.83 1.86
1.00 1.03 1.04 1.06 1.07 1.08 1.10 1.14 1.11 1.06 0.99 1.02 1.07 1.09 1.17 1.17 1.16 1.08 1.11 1.21 1.20 1.16 1.16 1.15 1.13 1.13 1.12 1.13 1.16 1.21 1.25 1.27 1.33 1.40 1.49 1.56 1.63 1.66 1.68 1.68 1.72 1.70 1.71 1.70 1.67 1.66 1.62 1.61 1.62 1.59 1.57 1.54 1.56 1.58 1.65 1.73 1.78 1.83 1.81 1.83 1.84 1.88 1.91
0.91 0.97 1.00 0.99 1.04 1.07 1.08 1.07 1.06 1.04 1.02 0.99 1.04 1.11 1.17 1.17 1.20 1.21 1.24 1.25 1.28 1.26 1.21 1.18 1.16 1.13 1.14 1.15 1.20 1.28 1.31 1.29 1.33 1.40 1.48 1.56 1.62 1.68 1.72 1.75 1.74 1.73 1.72 1.71 1.68 1.67 1.66 1.66 1.65 1.63 1.61 1.59 1.61 1.66 1.70 1.75 1.75 1.73 1.77 1.82 1.83 1.85 1.87
0.93 0.97 1.03 1.06 1.07 1.07 1.08 1.09 1.07 1.04 1.03 1.01 1.08 1.13 1.16 1.16 1.18 1.22 1.26 1.29 1.32 1.32 1.27 1.23 1.21 1.20 1.18 1.18 1.22 1.28 1.33 1.35 1.39 1.41 1.46 1.55 1.61 1.62 1.65 1.70 1.72 1.70 1.69 1.68 1.67 1.64 1.64 1.64 1.63 1.62 1.63 1.62 1.65 1.68 1.73 1.69 1.69 1.71 1.73 1.77 1.79 1.83 1.86
0.96 0.98 1.02 1.05 1.06 1.08 1.08 1.09 1.09 1.10 1.09 1.09 1.14 1.16 1.16 1.15 1.17 1.21 1.24 1.28 1.33 1.35 1.28 1.25 1.27 1.31 1.31 1.31 1.28 1.30 1.36 1.39 1.43 1.47 1.51 1.55 1.58 1.62 1.65 1.70 1.75 1.73 1.75 1.81 1.88 1.86 1.77 1.73 1.74 1.76 1.77 1.75 1.73 1.70 1.66 1.66 1.64 1.67 1.70 1.73 1.75 1.77 1.80
1.00 1.02 1.06 1.11 1.12 1.13 1.14 1.16 1.15 1.14 1.15 1.17 1.19 1.17 1.16 1.15 1.16 1.19 1.25 1.30 1.34 1.35 1.29 1.26 1.31 1.32 1.33 1.36 1.36 1.35 1.36 1.41 1.47 1.54 1.52 1.51 1.52 1.52 1.57 1.71 1.77 1.77 1.73 1.72 1.84 1.93 1.96 1.94 1.83 1.81 1.80 1.73 1.75 1.79 1.72 1.66 1.69 1.71 1.71 1.70 1.72 1.71 1.70
1.03 1.06 1.08 1.11 1.09 1.11 1.12 1.14 1.17 1.18 1.17 1.21 1.23 1.23 1.22 1.19 1.19 1.22 1.27 1.31 1.36 1.39 1.37 1.36 1.31 1.33 1.33 1.37 1.37 1.43 1.41 1.41 1.42 1.51 1.49 1.51 1.50 1.50 1.48 1.50 1.59 1.67 1.70 1.73 1.80 1.85 1.87 1.89 1.88 1.88 1.88 1.83 1.73 1.71 1.72 1.72 1.73 1.71 1.72 1.73 1.73 1.75 1.75
1.10 1.12 1.13 1.16 1.13 1.11 1.12 1.13 1.16 1.16 1.18 1.23 1.25 1.25 1.24 1.21 1.21 1.24 1.29 1.33 1.40 1.45 1.46 1.45 1.38 1.33 1.35 1.38 1.43 1.49 1.50 1.51 1.52 1.52 1.48 1.51 1.53 1.53 1.50 1.47 1.46 1.51 1.62 1.65 1.70 1.77 1.80 1.82 1.80 1.80 1.80 1.79 1.79 1.78 1.77 1.76 1.74 1.72 1.70 1.70 1.68 1.66 1.63
Wind_Speed
26 25 23 21 22 22 22 21 21 22 23 23 24 25 25 26 26 26 26 27 28 29 29 29 28 27 27 26 25 24 24 23 22 21 20 20 19 19 19 18 17 17 16 15 15 14 14 13 12 12 12 11 11 10 10 9 9 9 8 8 7 7 7
26 24 23 22 22 23 23 23 22 22 23 23 24 25 25 25 26 26 26 27 28 29 29 29 28 28 27 26 25 25 24 24 23 22 21 20 20 19 19 18 18 17 17 16 15 15 14 14 13 12 12 12 12 11 11 10 10 10 10 9 8 8 8
26 24 23 22 21 23 24 24 23 23 23 24 25 26 26 26 26 26 26 27 28 28 29 29 29 28 27 26 26 25 25 24 23 22 22 21 20 20 19 19 18 18 17 16 16 15 15 14 13 12 12 12 12 11 11 11 11 10 10 10 10 9 9
26 24 23 22 22 23 24 25 24 23 24 25 26 26 27 26 26 26 26 26 27 28 28 29 29 28 27 27 26 26 25 24 24 23 22 21 21 20 20 19 18 18 17 17 16 16 15 14 14 13 13 12 12 12 11 11 11 11 11 11 11 10 10
26 24 23 22 22 23 24 25 25 24 24 26 26 27 27 26 26 25 26 26 27 28 28 29 29 28 27 27 26 25 25 25 24 23 23 22 21 21 20 20 19 18 18 17 16 16 15 15 14 14 13 13 13 12 12 11 11 11 11 11 12 12 11
25 24 23 22 21 23 25 25 25 24 24 26 27 27 27 27 26 26 26 26 27 27 28 28 29 28 28 27 26 26 25 25 24 24 23 23 22 22 21 20 19 19 18 18 17 16 16 15 15 14 14 13 13 13 13 12 12 12 11 11 12 12 12
26 25 24 22 22 23 25 24 24 24 24 24 26 26 26 26 26 26 26 26 26 27 27 28 28 28 28 27 27 27 26 26 25 24 24 23 23 22 22 21 21 20 19 18 18 17 16 16 16 15 15 14 14 14 14 13 13 12 12 12 12 13 13
26 26 25 23 24 24 24 24 23 23 24 23 24 25 26 26 25 25 25 26 26 26 26 27 27 28 28 28 27 27 27 26 26 25 24 24 23 23 22 22 21 21 20 19 19 18 18 17 16 16 16 15 15 15 15 14 14 14 13 13 13 13 14
26 26 25 25 25 25 24 23 23 23 24 24 24 25 26 26 25 25 25 25 25 25 26 26 26 27 27 27 27 27 27 26 26 25 25 24 24 23 23 22 22 21 21 20 19 19 18 18 17 16 16 16 16 16 16 15 15 15 15 15 14 14 14
25 25 26 26 25 25 25 23 22 23 23 23 24 25 26 26 25 25 25 24 25 25 25 25 25 25 26 26 26 26 26 26 26 26 26 25 24 24 23 23 22 22 21 20 20 19 18 18 18 17 17 17 17 16 16 16 16 16 16 16 16 15 15
25 24 25 26 25 25 26 24 23 24 23 23 24 25 26 26 25 25 24 24 24 25 25 25 25 25 25 25 26 26 26 26 26 26 26 25 25 24 24 23 22 22 21 21 20 19 19 18 18 18 17 17 17 17 17 17 17 17 17 17 17 16 16
26 25 24 25 26 26 26 24 23 24 23 23 24 24 25 26 25 25 25 24 24 24 24 24 24 24 24 24 25 25 25 25 25 25 26 25 25 24 24 23 22 22 22 21 20 20 19 19 18 18 18 18 18 18 17 17 17 17 18 18 18 17 17
25 25 23 24 25 25 25 24 23 24 23 23 24 24 24 24 24 25 25 25 25 24 24 24 24 24 24 24 24 24 25 25 25 25 25 25 25 24 24 23 23 22 22 21 21 20 20 19 19 18 18 18 18 18 18 17 17 17 17 18 18 18 18
24 23 22 23 24 25 25 24 23 23 23 24 24 24 24 24 24 24 24 25 25 24 24 23 24 24 24 24 24 24 24 24 24 25 25 25 25 24 24 24 23 23 22 21 21 21 20 20 19 19 19 18 18 17 17 17 17 17 17 17 18 18 19
23 21 21 23 23 24 24 24 23 23 23 23 23 24 24 24 24 24 24 24 24 24 23 23 23 24 24 24 24 24 24 24 24 24 24 25 25 25 24 24 24 23 22 22 21 21 21 20 19 19 18 18 17 17 17 17 17 17 17 17 17 18 18
21 20 21 22 22 23 23 23 22 23 23 23 23 24 24 23 24 24 24 23 23 23 22 22 23 23 23 24 24 24 24 23 23 24 24 25 25 25 25 24 23 23 22 22 22 21 21 20 20 19 18 18 17 17 17 17 17 17 17 17 17 17 17
19 20 21 21 21 21 22 22 22 22 23 24 24 24 24 23 24 24 24 23 23 23 22 22 22 23 23 23 24 24 24 23 23 23 24 25 25 25 25 24 23 23 22 22 22 22 21 20 20 19 18 18 17 17 17 17 17 17 18 18 17 17 16
19 20 21 20 20 19 20 21 22 22 22 23 24 25 24 23 23 24 24 24 23 23 23 23 22 23 23 24 24 24 24 24 23 24 24 24 25 25 25 24 24 23 23 23 22 22 21 21 20 20 19 18 18 18 18 18 18 18 18 18 18 17 16
17 18 18 18 18 18 18 19 19 20 21 22 24 25 25 24 24 24 24 24 24 23 23 23 23 22 23 24 24 24 25 24 24 24 24 24 24 25 25 25 24 24 23 23 23 22 22 21 21 20 19 19 19 19 18 18 18 19 19 18 18 18 17
15 15 15 15 16 16 17 17 17 18 18 20 22 23 24 24 24 24 24 24 24 24 24 24 23 22 22 23 23 24 24 25 25 25 24 24 24 24 25 25 25 25 24 24 23 23 23 22 21 21 20 20 19 19 19 19 19 19 19 19 18 18 18
13 14 14 14 13 13 15 15 15 15 15 17 19 21 22 23 23 23 23 23 24 24 24 23 23 23 22 23 23 23 24 24 24 25 25 25 25 25 25 26 26 26 25 24 24 24 24 23 22 22 21 21 21 20 20 20 20 20 20 19 19 19 19
11 12 12 12 11 12 13 14 14 14 14 15 16 18 20 22 22 22 22 22 23 22 23 23 23 23 23 23 23 23 23 23 23 24 25 26 26 26 26 26 26 26 26 26 25 25 24 24 23 23 23 22 22 21 21 21 21 21 21 21 21 20 20
11 11 11 11 10 10 11 13 13 13 14 15 14 16 18 19 21 22 22 22 22 22 22 22 22 22 22 23 23 24 23 23 22 23 24 25 26 27 27 27 27 27 27 26 26 25 25 25 24 24 24 23 23 22 22 21 21 21 21 22 22 22 22
11 11 11 10 10 9 9 11 11 11 13 14 14 14 15 16 18 21 22 22 22 22 22 21 22 22 22 23 24 24 23 23 23 22 23 24 25 27 27 27 27 27 27 27 26 26 26 25 25 25 24 24 24 23 23 23 22 22 22 22 22 23 23
12 11 11 10 10 9 9 10 11 10 11 12 13 14 15 15 16 18 20 22 22 22 22 22 22 22 22 23 24 24 23 23 23 23 23 24 24 25 26 27 27 27 27 27 26 26 26 25 25 25 24 24 24 24 24 23 23 23 23 23 23 23 23
13 12 11 11 10 10 11 11 11 11 11 11 12 14 15 15 15 16 17 20 21 22 23 23 23 23 23 23 23 24 24 23 23 23 23 23 23 23 24 26 26 27 26 26 26 26 26 25 25 25 24 24 24 24 24 24 24 24 24 24 24 25 25
13 13 12 11 11 11 12 12 11 12 13 12 13 14 15 15 16 16 16 17 19 21 22 23 24 23 23 23 24 24 24 23 23 23 22 23 23 22 23 24 25 26 26 26 26 26 26 26 25 25 25 24 24 24 24 24 24 24 24 25 25 26 26
14 13 13 12 12 12 13 13 12 12 13 13 14 14 15 15 16 16 16 16 17 18 19 20 22 23 23 23 23 24 24 23 23 22 22 22 22 22 22 22 23 24 25 26 26 26 26 26 26 26 25 25 25 25 24 24 25 25 25 25 26 27 27
15 15 14 14 13 13 14 14 14 14 14 14 14 15 16 16 17 17 17 16 16 17 17 18 20 22 23 23 23 23 24 24 23 22 22 22 23 23 22 22 22 23 24 25 25 25 26 26 25 25 25 25 25 25 25 25 25 25 25 26 26 27 27
15 16 15 15 15 15 15 16 15 15 15 14 14 15 15 16 17 17 17 16 16 17 17 17 18 20 22 23 23 23 23 23 23 22 22 22 23 23 23 23 23 23 23 24 24 25 25 25 25 25 25 25 25 25 25 25 25 25 26 26 26 27 28
16 17 17 17 16 16 17 17 16 16 15 15 15 15 15 16 17 17 17 17 17 17 17 17 18 19 20 22 23 23 23 23 23 23 22 23 23 23 24 24 24 24 24 24 25 25 25 25 25 25 25 25 25 25 25 25 25 25 26 26 27 27 28
19 19 19 19 18 18 18 18 18 17 16 16 16 16 16 16 17 17 17 18 18 18 18 18 18 19 20 20 22 23 23 23 23 23 23 23 23 23 24 24 25 25 24 25 25 25 25 25 25 25 25 25 25 25 26 26 26 26 26 26 27 28 29
20 21 20 20 20 20 20 19 19 18 17 17 17 18 18 17 17 17 18 18 18 18 19 18 18 19 19 20 21 22 23 23 23 23 23 23 23 24 24 24 24 25 25 25 25 25 26 26 26 26 26 26 26 26 26 27 27 27 26 27 27 28 29
21 21 21 20 21 21 20 20 19 19 18 18 18 18 18 18 17 17 18 18 19 19 19 19 18 18 18 19 21 22 23 23 22 22 22 23 23 23 23 24 24 25 25 26 26 26 26 26 27 27 27 27 27 27 27 27 27 27 28 28 28 29 29
20 21 21 20 20 20 20 19 19 19 19 19 19 19 19 19 18 18 18 18 18 18 19 19 18 17 18 19 20 21 22 22 22 22 22 22 22 22 23 23 23 24 24 25 26 26 27 27 27 27 27 26 26 27 27 27 27 28 28 28 28 28 28
21 21 21 21 20 20 20 19 19 19 19 19 19 20 20 20 19 19 18 19 19 19 19 20 19 18 18 18 20 21 22 23 23 23 23 22 22 22 22 22 22 22 23 23 24 25 25 26 26 26 26 25 25 25 25 26 26 27 27 27 27 27 28
21 21 21 21 21 21 20 20 19 19 19 19 19 19 20 20 20 20 20 20 20 20 20 20 20 19 18 19 19 21 22 23 23 23 23 23 23 22 22 21 20 20 21 21 21 22 22 23 23 24 24 24 24 24 24 23 24 24 25 25 26 27 27
22 22 22 21 21 21 21 20 20 20 20 19 19 19 19 20 20 21 21 21 20 20 21 21 20 20 19 19 20 20 21 22 22 23 23 22 22 22 21 21 20 19 19 19 19 19 20 21 21 21 22 22 23 23 23 23 23 24 25 25 26 27 28
Wind_Direction
206 208 210 212 211 210 209 209 208 206 205 205 204 203 204 204 203 203 202 202 203 204 204 204 204 204 205 206 207 208 209 209 209 210 210 211 210 210 212 213 213 212 212 213 214 215 217 219 220 222 223 225 226 226 228 229 229 229 230 231 231 232 233
207 210 209 210 211 210 209 208 208 207 206 206 204 203 203 204 203 203 203 203 204 204 205 204 204 204 205 206 207 208 209 209 210 211 212 212 212 212 214 215 216 216 215 216 217 217 219 220 222 224 225 227 228 229 230 232 232 232 233 233 233 234 234
207 208 208 210 212 211 209 209 209 209 208 206 205 204 203 203 203 203 202 202 203 204 205 205 204 205 206 206 207 208 209 210 211 212 212 213 213 213 215 217 218 218 218 218 219 219 220 222 224 225 227 229 231 232 232 234 236 237 236 236 237 238 237
207 206 209 212 212 210 210 210 210 210 209 207 205 205 204 203 203 203 202 202 203 204 205 205 205 205 206 207 207 208 210 211 212 213 214 214 214 215 216 217 218 219 219 220 220 221 221 223 225 227 228 231 234 235 235 236 238 239 239 240 241 241 241
208 207 209 211 212 211 209 208 208 208 208 206 205 205 204 203 202 202 202 202 203 205 206 206 206 206 207 208 209 210 211 212 213 214 215 216 216 217 218 219 219 220 221 221 221 222 224 225 226 228 229 231 234 237 238 239 240 240 241 242 243 242 242
208 209 209 209 210 209 205 204 205 205 206 205 204 204 204 203 203 202 203 203 204 206 206 205 206 206 207 209 210 212 213 213 214 215 216 217 218 219 220 220 220 221 222 223 224 225 226 227 229 230 231 232 234 235 238 241 242 243 243 244 245 245 244
209 209 208 207 206 204 201 201 202 204 205 204 203 204 204 204 203 202 203 204 205 205 205 205 206 206 208 209 211 213 214 215 216 217 217 218 219 220 221 221 221 223 224 224 226 227 228 230 230 231 233 234 235 236 238 241 243 245 245 245 246 246 246
207 207 206 204 202 201 198 198 201 203 203 203 203 203 203 203 202 202 202 203 205 205 204 204 205 206 208 210 211 213 215 216 217 218 218 219 219 220 221 222 222 224 225 226 228 229 231 232 233 233 233 235 237 238 239 241 243 245 246 246 246 247 247
204 205 205 204 202 202 201 201 203 204 203 203 203 202 201 200 199 200 201 202 204 204 202 202 204 206 208 210 212 214 215 217 218 218 219 219 220 221 221 223 223 224 226 228 229 231 233 233 234 235 235 236 237 239 241 243 244 245 246 246 247 247 249
202 203 205 206 204 203 203 203 202 203 203 202 203 202 201 200 200 200 200 201 204 204 203 202 203 204 207 209 212 213 215 216 217 218 219 220 221 222 222 224 225 226 227 228 230 231 233 234 234 235 237 238 238 239 241 243 245 246 246 247 248 248 249
198 201 203 205 203 200 201 202 200 201 202 201 201 202 202 203 203 203 202 203 205 205 204 203 203 205 207 209 211 213 214 215 216 217 218 220 221 222 223 224 226 227 227 228 229 230 232 233 234 236 238 240 241 242 243 244 245 246 246 247 248 248 249
196 199 201 200 197 196 198 199 199 199 200 200 201 200 201 203 205 206 206 206 206 206 205 204 204 206 208 210 212 213 214 215 216 217 218 220 221 223 224 224 225 226 227 228 229 230 232 233 235 238 239 240 242 244 245 246 246 247 247 247 248 248 249
196 198 199 196 192 193 195 196 197 198 198 200 200 200 200 202 204 206 206 206 206 206 205 205 205 207 208 210 212 213 215 216 217 219 220 221 222 223 224 224 225 226 227 228 229 230 232 234 236 238 239 240 242 243 245 247 247 247 247 247 248 248 249
194 195 196 192 189 190 193 195 196 197 199 201 201 202 203 203 204 205 205 205 206 206 206 206 206 207 209 211 212 214 216 217 219 220 221 222 222 223 223 224 225 226 227 228 229 231 232 233 235 237 239 240 241 243 245 246 246 247 247 247 249 249 249
186 189 190 188 187 188 191 195 197 198 200 203 202 203 205 204 204 204 204 205 205 206 207 207 207 209 210 211 213 215 216 218 220 221 222 222 223 223 224 224 225 226 227 228 229 231 232 232 233 235 236 237 239 241 243 245 246 247 247 248 250 251 251
179 183 184 185 187 189 192 195 198 200 202 203 203 203 204 204 204 203 203 204 204 205 207 207 208 210 212 213 214 216 217 219 221 222 222 222 223 223 224 225 225 226 227 228 229 230 230 230 231 232 233 235 238 240 242 245 247 247 247 248 250 251 252
176 179 182 185 188 190 193 197 201 203 204 204 205 204 205 204 204 204 204 205 206 206 207 208 209 211 213 214 216 217 219 221 222 224 224 223 223 224 224 225 225 226 227 228 228 228 228 229 230 231 232 234 237 239 242 245 247 247 247 248 249 250 252
176 179 183 187 190 193 197 201 203 205 206 207 207 206 206 206 205 205 206 207 208 208 209 210 211 212 214 215 216 218 220 222 223 224 225 225 224 224 224 225 225 226 226 227 227 227 228 229 229 230 232 234 237 239 243 246 247 247 247 248 248 249 251
172 176 182 187 191 195 199 202 205 207 209 210 208 207 208 207 206 207 208 209 210 210 211 213 214 214 215 216 217 218 220 222 223 224 225 226 226 225 225 225 225 226 226 227 227 227 228 229 230 231 233 236 238 241 245 248 248 247 248 250 250 249 250
169 173 181 185 189 194 198 202 205 206 207 207 207 208 209 209 209 210 210 211 212 212 213 215 216 218 218 218 218 219 221 222 224 225 226 227 227 227 226 226 226 226 227 227 228 228 229 230 232 234 236 238 240 243 246 248 248 248 248 249 249 248 250
169 175 181 183 187 192 195 196 197 198 198 199 203 207 208 210 211 212 213 213 213 215 216 217 219 220 220 220 220 220 221 223 225 227 228 228 227 227 227 227 227 227 228 229 229 230 231 233 235 237 239 241 243 244 246 248 249 248 248 248 248 249 251
166 171 175 176 180 186 190 191 193 195 195 197 201 205 207 210 211 212 214 215 216 218 219 219 221 221 221 222 222 222 222 223 225 227 228 228 228 228 228 228 229 229 229 230 231 233 234 235 237 239 241 242 243 244 246 248 248 248 249 249 249 251 253
173 176 177 175 176 180 184 189 193 197 200 201 203 205 207 210 212 212 215 216 218 220 221 221 223 223 223 224 224 223 223 224 226 228 229 229 228 228 229 229 230 230 231 231 233 234 235 236 238 239 241 242 243 245 248 250 250 250 250 251 251 253 256
186 190 190 187 186 186 187 189 193 199 204 208 211 212 212 214 215 215 216 217 219 221 223 225 225 226 226 226 225 225 225 226 227 229 229 229 229 229 229 230 231 232 232 233 234 235 236 237 238 239 241 241 243 245 248 250 252 252 252 253 253 255 258
198 200 202 201 198 199 202 202 203 207 209 211 217 222 223 222 222 221 220 220 220 220 223 226 227 228 228 227 226 226 227 227 228 230 229 229 229 230 229 230 231 231 232 233 233 234 235 236 238 239 240 241 243 245 247 251 253 253 254 255 255 256 260
205 207 211 214 213 215 218 217 217 218 218 218 222 227 229 229 228 228 226 225 223 222 224 225 227 228 229 228 227 226 227 228 228 229 229 228 228 229 228 228 228 229 230 231 232 233 235 236 238 239 241 242 244 247 249 252 254 255 255 256 257 258 261
212 214 216 220 222 225 226 225 225 224 224 226 228 230 232 232 231 232 232 230 228 226 227 228 227 227 227 228 227 226 227 228 228 229 229 228 226 227 227 227 227 227 228 230 231 233 235 236 238 240 242 244 246 249 251 253 255 257 257 257 258 260 261
218 220 223 225 226 228 229 227 227 227 227 229 230 230 231 231 232 234 235 234 232 230 230 230 227 225 225 226 226 226 226 227 228 228 228 227 225 225 226 227 228 228 229 230 232 234 235 237 239 242 244 247 248 251 253 255 257 259 259 259 260 261 263
222 226 229 230 230 232 232 231 231 231 232 233 233 232 231 231 233 236 236 236 236 235 234 232 229 225 224 224 224 224 225 227 228 228 228 227 225 224 225 227 229 230 231 232 233 235 237 239 241 244 246 249 251 253 255 257 259 260 261 261 262 262 264
225 230 232 233 234 235 235 235 235 235 235 236 235 234 234 234 234 235 235 237 240 239 237 236 233 228 225 225 225 225 226 228 229 229 229 228 227 226 226 228 230 232 233 234 235 237 239 241 244 246 249 251 253 255 256 258 260 261 261 261 263 264 266
233 237 238 237 237 238 237 237 238 238 236 236 236 236 237 237 235 235 236 238 240 241 240 240 237 231 228 227 227 227 228 229 230 230 230 229 229 229 229 230 231 233 235 237 238 240 241 244 246 248 250 252 254 255 257 259 261 262 263 263 264 266 268
241 243 242 240 238 239 240 240 240 238 236 237 237 238 239 239 238 237 238 239 240 241 241 241 238 234 230 229 229 229 228 228 229 230 230 230 231 232 233 233 234 236 238 239 241 242 244 246 248 249 251 253 254 257 258 260 262 264 266 267 268 268 269
242 243 243 242 240 240 242 243 242 239 238 239 239 239 240 240 240 239 239 240 240 240 240 240 239 235 231 230 230 230 229 229 229 230 231 232 233 234 236 237 237 238 240 241 242 244 246 247 249 250 252 253 256 258 260 262 264 266 268 269 270 271 271
241 241 243 243 242 241 242 244 243 241 240 240 240 240 241 241 241 242 241 240 240 239 238 239 239 236 232 230 230 229 229 229 230 231 233 235 236 237 238 239 240 240 241 242 244 245 246 248 250 251 253 255 257 258 261 264 266 268 270 271 272 273 274
237 238 239 241 241 240 240 241 241 241 240 240 240 241 242 242 243 243 242 241 240 240 238 237 238 237 235 233 232 231 230 231 232 233 235 236 238 239 240 242 243 243 244 245 246 246 248 249 252 254 256 258 260 261 262 265 267 268 269 271 272 274 276
235 235 236 237 238 238 238 239 240 241 241 241 241 242 242 244 244 244 243 242 241 241 240 238 238 238 238 237 237 235 233 233 234 235 235 236 237 238 241 243 245 246 247 248 248 249 250 251 253 255 257 259 262 264 264 265 266 268 270 272 274 276 277
235 235 236 236 237 238 239 240 241 242 243 243 243 243 243 244 244 244 244 244 242 241 241 239 237 238 238 239 239 237 236 236 236 236 236 237 238 239 240 242 244 247 250 251 250 250 251 252 254 256 257 258 261 264 265 266 267 269 271 274 276 278 280
235 236 236 237 237 238 240 242 243 244 244 243 243 243 244 245 245 244 243 244 243 241 240 238 236 236 237 238 238 237 237 237 237 236 237 239 239 238 239 239 241 245 249 251 251 250 251 252 254 256 258 259 261 263 265 267 268 270 273 275 278 280 282